Flag for Greece Weather past 2 weeks in Nea Smyrni, Greece

Now
66 °F

Passing clouds.


Feels Like: 66 °F
Forecast: 51 / 69 °F
Wind: 8 mph from East

Location: Eleftherios Venizelos International Airport

Current Time: Apr 26, 2015 at 7:46:27 PM

Latest Report: Apr 26, 2015 at 5:50 PM


Visibility: N/A

Pressure: 29.98 "Hg

Humidity: 60%

Dew point: 52 °F

Location of Nea SmyrniLocation

Historic Weather in Nea Smyrni — Graph

°F

Nea Smyrni temperature yesterday

Maximum temperature yesterday: 68 °F (at 1:50 PM)
Minimum temperature yesterday: 54 °F (at 4:50 AM)
Average temperature yesterday: 61 °F

Past Weeks' High & Low Weather Summary

 TemperatureHumidityPressure
High73 °F (Apr 13, 4:50 PM)94% (Apr 26, 3:20 AM)30.30 "Hg (Apr 26, 3:20 AM)
Low37 °F (Apr 12, 5:50 AM)21% (Apr 22, 2:20 PM)29.83 "Hg (Apr 19, 5:50 AM)
Average58 °F59%30.10 "Hg
* Reported Apr 11 5:20 PM — Apr 26 5:50 PM, Nea Smyrni, Weather by CustomWeather, © 2015

Note: Actual official high and low records may vary slightly from our data, if they occured in-between our weather recording intervals... More about our weather records

Advertising

Nea Smyrni weather history for previous 24 hours

 ConditionsComfort  
Time TempWeatherWind HumidityBarometerVisibility
5:50 PM
Sun, Apr 26
66 °FPassing clouds.8 mph60%29.98 "HgN/A
5:20 PM66 °FPassing clouds.7 mph64%29.98 "HgN/A
4:50 PM64 °FPassing clouds.8 mph68%30.01 "HgN/A
4:20 PM66 °FPassing clouds.7 mph64%30.01 "HgN/A
3:50 PM66 °FPassing clouds.8 mph64%30.01 "HgN/A
3:20 PM68 °FPassing clouds.10 mph56%30.01 "HgN/A
2:50 PM70 °FPassing clouds.9 mph53%30.01 "HgN/A
2:20 PM68 °FPassing clouds.8 mph53%30.04 "HgN/A
1:20 PM68 °FPassing clouds.7 mph53%30.04 "HgN/A
12:50 PM68 °FPassing clouds.9 mph49%30.04 "HgN/A
12:20 PM68 °FPassing clouds.6 mph53%30.04 "HgN/A
11:50 AM66 °FPassing clouds.5 mph60%30.04 "HgN/A
11:20 AM66 °FPassing clouds.3 mph60%30.04 "HgN/A
10:50 AM64 °FPassing clouds.3 mph68%30.04 "HgN/A
10:20 AM64 °FPassing clouds.3 mph68%30.04 "HgN/A
9:50 AM63 °FScattered clouds.3 mph73%30.07 "HgN/A
9:20 AM61 °FPassing clouds.3 mph77%30.04 "HgN/A
8:50 AM59 °FPassing clouds.2 mph82%30.04 "HgN/A
8:20 AM57 °FScattered clouds.3 mph82%30.04 "HgN/A
7:50 AM55 °FScattered clouds.2 mph82%30.04 "HgN/A
7:20 AM52 °FPassing clouds.No wind82%30.04 "HgN/A
6:50 AM52 °FPassing clouds.No wind82%30.04 "HgN/A
6:20 AM48 °FPassing clouds.3 mph94%30.04 "HgN/A
5:50 AM48 °FPassing clouds.1 mph87%30.04 "HgN/A
5:20 AM46 °FPassing clouds.2 mph93%30.04 "HgN/A
4:50 AM46 °FPassing clouds.No wind93%30.04 "HgN/A
4:20 AM48 °FPassing clouds.1 mph87%30.04 "HgN/A
3:50 AM48 °FPassing clouds.2 mph94%30.04 "HgN/A
3:20 AM48 °FPassing clouds.2 mph94%30.04 "HgN/A
2:50 AM50 °FPassing clouds.1 mph88%30.04 "HgN/A
2:20 AM52 °FPassing clouds.No wind88%30.04 "HgN/A
1:50 AM50 °FPassing clouds.1 mph88%30.04 "HgN/A
1:20 AM52 °FPassing clouds.2 mph88%30.04 "HgN/A
12:50 AM54 °FPassing clouds.2 mph88%30.07 "HgN/A
11:50 PM
Sat, Apr 25
55 °FPassing clouds.1 mph88%30.07 "HgN/A
11:20 PM57 °FPassing clouds.1 mph82%30.07 "HgN/A
10:50 PM57 °FPassing clouds.5 mph82%30.07 "HgN/A
10:20 PM59 °FPassing clouds.1 mph77%30.07 "HgN/A
9:50 PM59 °FPassing clouds.2 mph77%30.07 "HgN/A
9:20 PM57 °FPassing clouds.2 mph82%30.07 "HgN/A
8:20 PM61 °FScattered clouds.5 mph72%30.04 "HgN/A
7:50 PM61 °FBroken clouds.7 mph77%30.04 "HgN/A
7:20 PM63 °FBroken clouds.9 mph73%30.04 "HgN/A
Weather by CustomWeather, © 2015

See weather overviewHow to use our weather pages